• In Uzbekistan
  • List of Countries
  • For 7 days
  • Water Temperature
  • Satellite Maps
  • Weather Map
  • Weather Widgets
  • user-avatar
    Login

    Hourly Weather Serowe

    Today, 25 February, Sunday

    Time Temperature Precipitation Wind Pressure Humidity
    00:00 +21°C° 0.1 mm 2 mps 664 mmHg 88%
    01:00 +22°C° 0.1 mm 1 mps 663 mmHg 89%
    02:00 +21°C° 0.1 mm 1 mps 663 mmHg 90%
    03:00 +21°C° 0.2 mm 1 mps 663 mmHg 90%
    04:00 +21°C° 0.2 mm 1 mps 663 mmHg 90%
    05:00 +21°C° 0.2 mm 1 mps 663 mmHg 90%
    06:00 +22°C° 0.2 mm 1 mps 664 mmHg 88%
    07:00 +22°C° 0.2 mm 1 mps 664 mmHg 86%
    08:00 +22°C° 0.2 mm 1 mps 664 mmHg 84%
    09:00 +23°C° 0.8 mm 1 mps 665 mmHg 80%
    10:00 +24°C° 0.8 mm 1 mps 665 mmHg 76%
    11:00 +25°C° 0.8 mm 2 mps 665 mmHg 73%
    12:00 +26°C° 0.5 mm 1 mps 665 mmHg 70%
    13:00 +26°C° 0.5 mm 1 mps 665 mmHg 66%
    14:00 +27°C° 0.5 mm 1 mps 664 mmHg 63%
    15:00 +27°C° 0.1 mm 1 mps 664 mmHg 64%
    16:00 +26°C° 0.1 mm 1 mps 664 mmHg 66%
    17:00 +26°C° 0.1 mm 1 mps 663 mmHg 67%
    18:00 +25°C° 0.2 mm 1 mps 663 mmHg 72%
    19:00 +24°C° 0.2 mm 2 mps 663 mmHg 76%
    20:00 +23°C° 0.2 mm 2 mps 663 mmHg 81%
    21:00 +23°C° 0 mm 2 mps 664 mmHg 82%
    22:00 +23°C° 0 mm 2 mps 664 mmHg 83%
    23:00 +21°C° 0 mm 3 mps 664 mmHg 84%

    Tomorrow, 26 February, Monday

    Time Temperature Precipitation Wind Pressure Humidity
    00:00 +21°C° 0.1 mm 3 mps 664 mmHg 85%
    01:00 +21°C° 0.1 mm 4 mps 664 mmHg 86%
    02:00 +20°C° 0.1 mm 5 mps 664 mmHg 87%
    03:00 +20°C° 0.1 mm 6 mps 664 mmHg 87%
    04:00 +20°C° 0.1 mm 6 mps 664 mmHg 88%
    05:00 +20°C° 0.1 mm 7 mps 665 mmHg 88%
    06:00 +18°C° 0.1 mm 7 mps 665 mmHg 87%
    07:00 +18°C° 0.1 mm 7 mps 666 mmHg 87%
    08:00 +17°C° 0.1 mm 7 mps 666 mmHg 86%
    09:00 +18°C° 0.1 mm 7 mps 667 mmHg 84%
    10:00 +18°C° 0.1 mm 7 mps 667 mmHg 82%
    11:00 +20°C° 0.1 mm 7 mps 667 mmHg 79%
    12:00 +20°C° 0.2 mm 7 mps 667 mmHg 79%
    13:00 +20°C° 0.2 mm 7 mps 667 mmHg 78%
    14:00 +20°C° 0.2 mm 7 mps 666 mmHg 78%
    15:00 +19°C° 0.3 mm 6 mps 666 mmHg 80%
    16:00 +19°C° 0.3 mm 6 mps 666 mmHg 82%
    17:00 +17°C° 0.3 mm 6 mps 665 mmHg 84%
    18:00 +17°C° 0.1 mm 6 mps 666 mmHg 86%
    19:00 +17°C° 0.1 mm 6 mps 666 mmHg 87%
    20:00 +16°C° 0.1 mm 5 mps 666 mmHg 88%
    21:00 +16°C° 0 mm 5 mps 667 mmHg 89%
    22:00 +16°C° 0 mm 5 mps 667 mmHg 89%
    23:00 +16°C° 0 mm 5 mps 667 mmHg 89%

    Day after tomorrow, 27 February, Tuesday

    Time Temperature Precipitation Wind Pressure Humidity
    00:00 +16°C° 0.1 mm 5 mps 667 mmHg 89%
    01:00 +16°C° 0.1 mm 5 mps 667 mmHg 89%
    02:00 +16°C° 0.1 mm 5 mps 666 mmHg 89%
    03:00 +16°C° 0.1 mm 5 mps 666 mmHg 90%
    04:00 +16°C° 0.1 mm 5 mps 666 mmHg 90%
    05:00 +17°C° 0.1 mm 4 mps 666 mmHg 90%
    06:00 +17°C° 0.1 mm 4 mps 666 mmHg 90%
    07:00 +17°C° 0.1 mm 4 mps 667 mmHg 90%
    08:00 +18°C° 0.1 mm 4 mps 667 mmHg 89%
    09:00 +18°C° 0.1 mm 4 mps 667 mmHg 88%
    10:00 +18°C° 0.1 mm 4 mps 667 mmHg 87%
    11:00 +18°C° 0.1 mm 4 mps 667 mmHg 86%
    12:00 +19°C° 0.1 mm 4 mps 667 mmHg 83%
    13:00 +20°C° 0.1 mm 4 mps 667 mmHg 81%
    14:00 +21°C° 0.1 mm 4 mps 666 mmHg 78%
    15:00 +21°C° 0 mm 4 mps 666 mmHg 77%
    16:00 +21°C° 0 mm 4 mps 666 mmHg 77%
    17:00 +21°C° 0 mm 3 mps 665 mmHg 77%
    18:00 +20°C° 0 mm 3 mps 666 mmHg 80%
    19:00 +20°C° 0 mm 3 mps 666 mmHg 83%
    20:00 +19°C° 0 mm 2 mps 666 mmHg 87%
    21:00 +19°C° 0 mm 2 mps 666 mmHg 87%
    22:00 +19°C° 0 mm 2 mps 666 mmHg 88%
    23:00 +18°C° 0 mm 2 mps 666 mmHg 88%

    28 February, Wednesday

    Time Temperature Precipitation Wind Pressure Humidity
    00:00 +19°C° 0 mm 1 mps 666 mmHg 89%
    01:00 +19°C° 0 mm 1 mps 665 mmHg 89%
    02:00 +19°C° 0 mm 1 mps 665 mmHg 90%
    03:00 +19°C° 0 mm 1 mps 665 mmHg 90%
    04:00 +18°C° 0 mm 2 mps 665 mmHg 90%
    05:00 +18°C° 0 mm 2 mps 665 mmHg 90%
    06:00 +19°C° 0 mm 2 mps 666 mmHg 86%
    07:00 +20°C° 0 mm 3 mps 666 mmHg 82%
    08:00 +20°C° 0 mm 3 mps 667 mmHg 78%
    09:00 +22°C° 0 mm 4 mps 667 mmHg 71%
    10:00 +25°C° 0 mm 4 mps 667 mmHg 64%
    11:00 +27°C° 0 mm 5 mps 668 mmHg 57%
    12:00 +28°C° 0.2 mm 5 mps 667 mmHg 56%
    13:00 +28°C° 0.2 mm 5 mps 666 mmHg 55%
    14:00 +29°C° 0.2 mm 5 mps 666 mmHg 53%
    15:00 +28°C° 0.3 mm 5 mps 665 mmHg 55%
    16:00 +28°C° 0.3 mm 5 mps 665 mmHg 56%
    17:00 +28°C° 0.3 mm 4 mps 665 mmHg 57%
    18:00 +27°C° 0.1 mm 4 mps 665 mmHg 62%
    19:00 +25°C° 0.1 mm 3 mps 665 mmHg 68%
    20:00 +24°C° 0.1 mm 3 mps 665 mmHg 73%
    21:00 +24°C° 0 mm 3 mps 665 mmHg 74%
    22:00 +22°C° 0 mm 3 mps 665 mmHg 75%
    23:00 +22°C° 0 mm 3 mps 665 mmHg 75%

    1 March, Thursday

    Time Temperature Precipitation Wind Pressure Humidity
    00:00 +22°C° 0 mm 3 mps 665 mmHg 78%
    01:00 +21°C° 0 mm 3 mps 665 mmHg 80%
    02:00 +21°C° 0 mm 3 mps 665 mmHg 83%
    03:00 +20°C° 0 mm 3 mps 665 mmHg 85%
    04:00 +20°C° 0 mm 4 mps 665 mmHg 87%
    05:00 +20°C° 0 mm 4 mps 665 mmHg 89%
    06:00 +20°C° 0 mm 5 mps 665 mmHg 87%
    07:00 +20°C° 0 mm 5 mps 666 mmHg 85%
    08:00 +21°C° 0 mm 6 mps 666 mmHg 83%
    09:00 +22°C° 0 mm 6 mps 666 mmHg 78%
    10:00 +23°C° 0 mm 6 mps 666 mmHg 72%
    11:00 +24°C° 0 mm 6 mps 667 mmHg 67%
    12:00 +24°C° 0 mm 6 mps 666 mmHg 63%
    13:00 +26°C° 0 mm 5 mps 666 mmHg 59%
    14:00 +27°C° 0 mm 5 mps 665 mmHg 55%
    15:00 +27°C° 0 mm 5 mps 665 mmHg 56%
    16:00 +27°C° 0 mm 4 mps 664 mmHg 57%
    17:00 +26°C° 0 mm 4 mps 664 mmHg 57%
    18:00 +25°C° 0 mm 3 mps 664 mmHg 60%
    19:00 +25°C° 0 mm 3 mps 664 mmHg 64%
    20:00 +24°C° 0 mm 2 mps 664 mmHg 67%
    21:00 +23°C° 0 mm 2 mps 664 mmHg 68%
    22:00 +23°C° 0 mm 2 mps 664 mmHg 70%
    23:00 +21°C° 0 mm 2 mps 664 mmHg 71%

    2 March, Friday

    Time Temperature Precipitation Wind Pressure Humidity
    00:00 +21°C° 0 mm 3 mps 664 mmHg 71%
    01:00 +20°C° 0 mm 3 mps 664 mmHg 71%
    02:00 +20°C° 0 mm 4 mps 664 mmHg 72%
    03:00 +20°C° 0.2 mm 3 mps 664 mmHg 73%
    04:00 +19°C° 0.2 mm 3 mps 664 mmHg 74%
    05:00 +19°C° 0.2 mm 3 mps 664 mmHg 75%
    06:00 +19°C° 0.6 mm 3 mps 665 mmHg 76%
    07:00 +19°C° 0.6 mm 4 mps 665 mmHg 77%
    08:00 +18°C° 0.6 mm 4 mps 666 mmHg 77%
    09:00 +19°C° 0.2 mm 4 mps 666 mmHg 73%
    10:00 +20°C° 0.2 mm 4 mps 666 mmHg 69%
    11:00 +21°C° 0.2 mm 5 mps 666 mmHg 65%
    12:00 +22°C° 0 mm 5 mps 666 mmHg 61%
    13:00 +23°C° 0 mm 5 mps 666 mmHg 56%
    14:00 +25°C° 0 mm 5 mps 666 mmHg 51%
    15:00 +25°C° 0.1 mm 5 mps 666 mmHg 54%
    16:00 +23°C° 0.1 mm 5 mps 665 mmHg 57%
    17:00 +22°C° 0.1 mm 5 mps 665 mmHg 60%
    18:00 +21°C° 0.1 mm 5 mps 665 mmHg 63%
    19:00 +21°C° 0.1 mm 4 mps 665 mmHg 67%
    20:00 +20°C° 0.1 mm 4 mps 665 mmHg 70%
    21:00 +19°C° 0.2 mm 4 mps 665 mmHg 72%
    22:00 +19°C° 0.2 mm 4 mps 665 mmHg 73%
    23:00 +19°C° 0.2 mm 4 mps 665 mmHg 75%
    Show more